Weather History for Childress, TX

Change the Weather History Date:

Friday, July 12, 2013

  Actual Average Record
Temperature  
Mean Temperature 90 °F 83 °F  
Max Temperature 103 °F 96 °F 107 °F (2001)
Min Temperature 76 °F 71 °F 59 °F (1897)
Degree Days  
Heating Degree Days 0 0  
Month to date heating degree days 0 0  
Since 1 June heating degree days 0 2  
Since 1 July heating degree days 0 0  
Cooling Degree Days 25 18  
Month to date cooling degree days 223 214  
Year to date cooling degree days 1076 947  
Since 1 June cooling degree days 725 635  
Growing Degree Days 38 (Base 50)    
Moisture  
Dew Point 60 °F    
Average Humidity 44    
Maximum Humidity 64    
Minimum Humidity 23    
Precipitation  
Precipitation T in 0.05 in 1.10 in (1945)
Month to date precipitation T 0.85  
Year to date precipitation 8.12 13.37  
Snow  
Snow 0.00 in 0.00 in - ()
Month to date snowfall 0.0 0.0  
Since 1 June snowfall 0.0 0.0  
Since 1 July snowfall 0.0 0.0  
Snow Depth -    
Sea Level Pressure  
Sea Level Pressure 29.86 in    
Wind  
Wind Speed 10 mph (SSE)    
Max Wind Speed 23 mph    
Max Gust Speed 31 mph    
Visibility 10 miles    
Events Rain    
T = Trace of Precipitation, MM = Missing Value Source: NWS Daily Summary

Daily Weather History Graph

Daily Weather History Graph

Search for Another Location

Airport:

Trip Planner

Search our weather history database for the weather conditions in past years. The results will help you decide how hot, cold, wet, or windy it might be!

Date:

Astronomy

Jul. 12, 2013 Rise Set
Actual Time 6:38 AM CDT 8:55 PM CDT
Civil Twilight 6:09 AM CDT 9:23 PM CDT
Nautical Twilight 5:34 AM CDT 9:59 PM CDT
Astronomical Twilight 4:55 AM CDT 10:37 PM CDT
Moon 10:43 AM CDT (7/12) 11:20 PM CDT (7/12)
Length of Visible Light 15h 14m
Length of Day
14h 16m
Waxing Crescent, 17% of the Moon is Illuminated
Jul 12
Waxing Crescent
Jul 15
First Quarter
Jul 22
Full
Jul 29
Last Quarter
Aug 6
New

Hourly Weather History & Observations

Time (CDT) Temp. Heat Index Dew Point Humidity Pressure Visibility Wind Dir Wind Speed Gust Speed Precip Events Conditions
12:53 AM 84.0 °F 84.5 °F 62.1 °F 47% 29.88 in 10.0 mi SSE 10.4 mph - N/A   Clear
1:53 AM 84.0 °F 84.5 °F 62.1 °F 47% 29.88 in 10.0 mi SSE 13.8 mph - N/A   Clear
2:53 AM 82.0 °F 83.1 °F 63.0 °F 52% 29.86 in 10.0 mi SSE 12.7 mph - N/A   Clear
3:53 AM 81.0 °F 82.5 °F 64.0 °F 56% 29.86 in 10.0 mi SSE 5.8 mph - N/A   Clear
4:53 AM 78.1 °F - 64.9 °F 64% 29.86 in 10.0 mi South 5.8 mph - N/A   Clear
5:53 AM 78.1 °F - 64.9 °F 64% 29.87 in 10.0 mi SE 5.8 mph - N/A   Clear
6:53 AM 77.0 °F - 64.9 °F 66% 29.88 in 10.0 mi SE 8.1 mph - N/A   Clear
7:53 AM 78.1 °F - 64.9 °F 64% 29.89 in 10.0 mi SE 6.9 mph - N/A   Clear
8:53 AM 82.9 °F 84.4 °F 64.0 °F 53% 29.89 in 10.0 mi South 8.1 mph - N/A   Clear
9:53 AM 89.1 °F 89.3 °F 62.1 °F 40% 29.89 in 10.0 mi WSW 8.1 mph - N/A   Clear
10:53 AM 91.9 °F 91.8 °F 61.0 °F 35% 29.89 in 10.0 mi North - - 0.00 in Rain Light Rain
11:53 AM 95.0 °F 95.2 °F 61.0 °F 32% 29.89 in 10.0 mi North - - 0.00 in   Clear
12:53 PM 99.0 °F 98.6 °F 59.0 °F 26% 29.87 in 10.0 mi SSE 9.2 mph - N/A   Scattered Clouds
1:53 PM 100.9 °F 100.5 °F 57.9 °F 24% 29.86 in 10.0 mi SW 8.1 mph 17.3 mph N/A   Clear
2:53 PM 97.0 °F 95.7 °F 57.0 °F 26% 29.85 in 10.0 mi SE 5.8 mph - N/A   Mostly Cloudy
3:53 PM 100.0 °F 100.2 °F 59.0 °F 26% 29.83 in 10.0 mi ESE 12.7 mph 27.6 mph N/A   Partly Cloudy
4:53 PM 100.9 °F 100.5 °F 57.9 °F 24% 29.83 in 10.0 mi SSE 15.0 mph 25.3 mph N/A   Clear
5:53 PM 100.0 °F 98.8 °F 55.9 °F 23% 29.82 in 10.0 mi SSE 17.3 mph 25.3 mph N/A   Clear
6:53 PM 99.0 °F 97.3 °F 55.0 °F 23% 29.81 in 10.0 mi SSE 15.0 mph 21.9 mph N/A   Clear
7:53 PM 97.0 °F 95.0 °F 55.0 °F 24% 29.82 in 10.0 mi SSE 13.8 mph 24.2 mph N/A   Clear
8:53 PM 93.9 °F 91.7 °F 54.0 °F 26% 29.82 in 10.0 mi SE 12.7 mph - N/A   Clear
9:53 PM 90.0 °F 87.9 °F 55.0 °F 30% 29.83 in 10.0 mi SE 9.2 mph - N/A   Clear
10:53 PM 87.1 °F 85.7 °F 55.9 °F 35% 29.86 in 10.0 mi SSE 6.9 mph - N/A   Clear
11:53 PM 84.0 °F 83.3 °F 57.0 °F 40% 29.87 in 10.0 mi SE 6.9 mph - N/A   Clear